time, Switch, Flow(0), Analog(2)
yyyy/mm/dd HH:MM:SS.fff, True=FILTERED|False=TOTAL, L/min, V
2023/06/29 10:00:03.227, True, 4.642, 0.132219
2023/06/29 10:00:03.731, True, 3.979, 0.131762
2023/06/29 10:00:04.227, True, 2.696, 0.130236
2023/06/29 10:00:04.731, True, 1.989, 0.129854
2023/06/29 10:00:05.227, True, 1.685, 0.131762
2023/06/29 10:00:05.730, True, 1.658, 0.130617
2023/06/29 10:00:06.235, True, 1.658, 0.131609
2023/06/29 10:00:06.731, True, 1.685, 0.131762
2023/06/29 10:00:07.235, True, 1.658, 0.132906
2023/06/29 10:00:07.739, True, 1.658, 0.131380
2023/06/29 10:00:08.235, True, 1.685, 0.130999
2023/06/29 10:00:08.739, True, 1.660, 0.133364
2023/06/29 10:00:09.243, True, 1.656, 0.133440
2023/06/29 10:00:09.738, True, 1.685, 0.130922
2023/06/29 10:00:10.243, True, 1.658, 0.130999
2023/06/29 10:00:10.746, True, 1.991, 0.132372
2023/06/29 10:00:11.243, True, 1.683, 0.131914
2023/06/29 10:00:11.747, True, 1.658, 0.132067
2023/06/29 10:00:12.251, True, 1.658, 0.133516
2023/06/29 10:00:12.747, True, 1.685, 0.132219
2023/06/29 10:00:13.250, True, 1.658, 0.131151
2023/06/29 10:00:13.755, True, 1.993, 0.131914
2023/06/29 10:00:14.251, True, 1.682, 0.132525
2023/06/29 10:00:14.755, True, 1.658, 0.132448
2023/06/29 10:00:15.259, True, 1.990, 0.130846
2023/06/29 10:00:15.763, True, 1.659, 0.133211
2023/06/29 10:00:16.259, True, 1.683, 0.132296
2023/06/29 10:00:16.762, True, 1.990, 0.132830
2023/06/29 10:00:17.267, True, 1.658, 0.131991
2023/06/29 10:00:17.763, True, 1.685, 0.130999
2023/06/29 10:00:18.267, True, 1.658, 0.132677
2023/06/29 10:00:18.770, True, 1.658, 0.131075
2023/06/29 10:00:19.267, True, 1.685, 0.132448
2023/06/29 10:00:19.771, True, 1.658, 0.131685
2023/06/29 10:00:20.275, True, 1.658, 0.132448
2023/06/29 10:00:20.771, True, 1.684, 0.127794
2023/06/29 10:00:21.275, True, 1.658, 0.131685
2023/06/29 10:00:21.779, True, 1.659, 0.134813
2023/06/29 10:00:22.275, True, 1.685, 0.130541
2023/06/29 10:00:22.779, True, 1.989, 0.131228
2023/06/29 10:00:23.282, True, 1.658, 0.131685
2023/06/29 10:00:23.779, True, 2.022, 0.131533
2023/06/29 10:00:24.283, True, 1.658, 0.131533
2023/06/29 10:00:24.787, True, 1.659, 0.133135
2023/06/29 10:00:25.291, True, 1.990, 0.131991
2023/06/29 10:00:25.787, True, 1.684, 0.131151
2023/06/29 10:00:26.291, True, 1.658, 0.134279
2023/06/29 10:00:26.795, True, 1.658, 0.132448
2023/06/29 10:00:27.291, True, 1.685, 0.132830
2023/06/29 10:00:27.795, True, 1.658, 0.133135
2023/06/29 10:00:28.299, True, 1.990, 0.131914
2023/06/29 10:00:28.795, True, 1.684, 0.131456
2023/06/29 10:00:29.299, True, 1.658, 0.132601
2023/06/29 10:00:29.802, True, 1.326, 0.130541
2023/06/29 10:00:30.299, True, 1.685, 0.132448
2023/06/29 10:00:30.803, True, 1.658, 0.133135
2023/06/29 10:00:31.307, True, 1.658, 0.131380
2023/06/29 10:00:31.803, True, 1.685, 0.132448
2023/06/29 10:00:32.307, True, 1.990, 0.131762
2023/06/29 10:00:32.810, True, 1.658, 0.132753
2023/06/29 10:00:33.306, True, 1.685, 0.133822
2023/06/29 10:00:33.811, True, 1.658, 0.133135
2023/06/29 10:00:34.314, True, 1.661, 0.132982
2023/06/29 10:00:34.811, True, 1.682, 0.131991
2023/06/29 10:00:35.315, True, 1.990, 0.129931
2023/06/29 10:00:35.819, True, 1.658, 0.131075
2023/06/29 10:00:36.315, True, 1.685, 0.132601
2023/06/29 10:00:36.819, True, 1.658, 0.131991
2023/06/29 10:00:37.323, True, 1.658, 0.131609
2023/06/29 10:00:37.819, True, 1.685, 0.134585
2023/06/29 10:00:38.323, True, 1.658, 0.132753
2023/06/29 10:00:38.827, True, 1.990, 0.133516
2023/06/29 10:00:39.323, True, 1.684, 0.134585
2023/06/29 10:00:39.827, True, 1.658, 0.133898
2023/06/29 10:00:40.331, True, 1.658, 0.133745
2023/06/29 10:00:40.827, True, 1.685, 0.130999
2023/06/29 10:00:41.330, True, 1.990, 0.132677
2023/06/29 10:00:41.835, True, 1.658, 0.135576
2023/06/29 10:00:42.331, True, 1.685, 0.133822
2023/06/29 10:00:42.835, True, 1.659, 0.133364
2023/06/29 10:00:43.339, True, 1.327, 0.134356
2023/06/29 10:00:43.835, True, 1.346, 0.136645
2023/06/29 10:00:44.339, True, 1.658, 0.136187
2023/06/29 10:00:44.843, True, 1.658, 0.136568
2023/06/29 10:00:45.339, True, 1.684, 0.134356
2023/06/29 10:00:45.843, True, 1.658, 0.133974
2023/06/29 10:00:46.347, True, 1.658, 0.138170
2023/06/29 10:00:46.843, True, 2.021, 0.134890
2023/06/29 10:00:47.347, True, 1.658, 0.135805
2023/06/29 10:00:47.850, True, 1.990, 0.134432
2023/06/29 10:00:48.347, True, 1.685, 0.135805
2023/06/29 10:00:48.851, True, 1.658, 0.136416
2023/06/29 10:00:49.354, True, 1.989, 0.134966
2023/06/29 10:00:49.851, True, 1.687, 0.136187
2023/06/29 10:00:50.355, True, 1.656, 0.132830
2023/06/29 10:00:50.859, True, 1.657, 0.136645
2023/06/29 10:00:51.355, True, 1.685, 0.136721
2023/06/29 10:00:51.859, True, 1.658, 0.134890
2023/06/29 10:00:52.363, True, 1.658, 0.137865
2023/06/29 10:00:52.859, True, 1.685, 0.138857
2023/06/29 10:00:53.362, True, 1.658, 0.137636
2023/06/29 10:00:53.867, True, 1.658, 0.138018
2023/06/29 10:00:54.363, True, 1.684, 0.139773
2023/06/29 10:00:54.867, True, 1.990, 0.136339
2023/06/29 10:00:55.363, True, 1.685, 0.138933
2023/06/29 10:00:55.867, True, 1.659, 0.136416
2023/06/29 10:00:56.370, True, 1.326, 0.137560
2023/06/29 10:00:56.875, True, 1.658, 0.140230
2023/06/29 10:00:57.371, True, 1.685, 0.139467
2023/06/29 10:00:57.874, True, 1.661, 0.140002
2023/06/29 10:00:58.370, True, 1.682, 0.138857
2023/06/29 10:00:58.875, True, 1.659, 0.138018
2023/06/29 10:00:59.379, True, 1.657, 0.137789
2023/06/29 10:00:59.883, True, 1.658, 0.139086
2023/06/29 10:01:00.378, True, 1.685, 0.138933
2023/06/29 10:01:00.883, True, 1.658, 0.139696
2023/06/29 10:01:01.379, True, 1.685, 0.137713
2023/06/29 10:01:01.882, True, 1.990, 0.140154
2023/06/29 10:01:02.387, True, 1.658, 0.140917
2023/06/29 10:01:02.883, True, 1.684, 0.138094
2023/06/29 10:01:03.387, True, 1.660, 0.139010
2023/06/29 10:01:03.891, True, 1.656, 0.137255
2023/06/29 10:01:04.387, True, 1.685, 0.140764
2023/06/29 10:01:04.891, True, 1.661, 0.138628
2023/06/29 10:01:05.394, True, 1.986, 0.139849
2023/06/29 10:01:05.890, True, 1.348, 0.140917
2023/06/29 10:01:06.395, True, 1.994, 0.138628
2023/06/29 10:01:06.899, True, 1.655, 0.139467
2023/06/29 10:01:07.395, True, 1.685, 0.138857
2023/06/29 10:01:07.899, True, 1.658, 0.138170
2023/06/29 10:01:08.403, True, 1.658, 0.138018
2023/06/29 10:01:08.899, True, 1.684, 0.140230
2023/06/29 10:01:09.402, True, 1.990, 0.139925
2023/06/29 10:01:09.907, True, 1.661, 0.140002
2023/06/29 10:01:10.403, True, 1.683, 0.140841
2023/06/29 10:01:10.906, True, 1.657, 0.140841
2023/06/29 10:01:11.410, True, 1.657, 0.141985
2023/06/29 10:01:11.907, True, 2.022, 0.139467
2023/06/29 10:01:12.411, True, 1.658, 0.139849
2023/06/29 10:01:12.915, True, 1.659, 0.141985
2023/06/29 10:01:13.411, True, 1.684, 0.141070
2023/06/29 10:01:13.915, True, 1.658, 0.139620
2023/06/29 10:01:14.419, True, 1.658, 0.140612
2023/06/29 10:01:14.915, True, 2.022, 0.138476
2023/06/29 10:01:15.419, True, 1.657, 0.138705
2023/06/29 10:01:15.923, True, 1.659, 0.140307
2023/06/29 10:01:16.427, True, 1.991, 0.140230
2023/06/29 10:01:16.923, True, 1.682, 0.139696
2023/06/29 10:01:17.427, True, 1.658, 0.137484
2023/06/29 10:01:17.931, True, 1.989, 0.137179
2023/06/29 10:01:18.427, True, 1.685, 0.138399
2023/06/29 10:01:18.931, True, 1.658, 0.139925
2023/06/29 10:01:19.435, True, 1.658, 0.137789
2023/06/29 10:01:19.931, True, 2.022, 0.140002
2023/06/29 10:01:20.435, True, 1.658, 0.139162
2023/06/29 10:01:20.931, True, 1.688, 0.141833
2023/06/29 10:01:21.435, True, 1.986, 0.138094
2023/06/29 10:01:21.939, True, 1.658, 0.139391
2023/06/29 10:01:22.443, True, 1.658, 0.139773
2023/06/29 10:01:22.939, True, 1.685, 0.138933
2023/06/29 10:01:23.443, True, 1.658, 0.139620
2023/06/29 10:01:23.947, True, 1.658, 0.139467
2023/06/29 10:01:24.443, True, 1.686, 0.137713
2023/06/29 10:01:24.947, True, 1.988, 0.138552
2023/06/29 10:01:25.451, True, 1.657, 0.140078
2023/06/29 10:01:25.946, True, 1.685, 0.138628
2023/06/29 10:01:26.451, True, 1.658, 0.139086
2023/06/29 10:01:26.954, True, 1.658, 0.136721
2023/06/29 10:01:27.450, True, 1.686, 0.140993
2023/06/29 10:01:27.954, True, 1.989, 0.140307
2023/06/29 10:01:28.458, True, 1.658, 0.140307
2023/06/29 10:01:28.955, True, 1.684, 0.140536
2023/06/29 10:01:29.459, True, 1.658, 0.138018
2023/06/29 10:01:29.963, True, 1.326, 0.139239
2023/06/29 10:01:30.459, True, 1.685, 0.140002
2023/06/29 10:01:30.963, True, 1.658, 0.137560
2023/06/29 10:01:31.467, True, 1.989, 0.140764
2023/06/29 10:01:31.963, True, 1.687, 0.138476
2023/06/29 10:01:32.466, True, 1.656, 0.140764
2023/06/29 10:01:32.963, True, 1.687, 0.139544
2023/06/29 10:01:33.467, True, 1.987, 0.137713
2023/06/29 10:01:33.970, True, 1.658, 0.139010
2023/06/29 10:01:34.466, True, 1.687, 0.140688
2023/06/29 10:01:34.971, True, 1.655, 0.139544
2023/06/29 10:01:35.475, True, 1.990, 0.141375
2023/06/29 10:01:35.971, True, 1.684, 0.137636
2023/06/29 10:01:36.474, True, 1.659, 0.137713
2023/06/29 10:01:36.979, True, 1.658, 0.140154
2023/06/29 10:01:37.475, True, 1.688, 0.140688
2023/06/29 10:01:37.979, True, 1.986, 0.138705
2023/06/29 10:01:38.483, True, 1.658, 0.141756
2023/06/29 10:01:38.979, True, 1.688, 0.139391
2023/06/29 10:01:39.483, True, 1.655, 0.137636
2023/06/29 10:01:39.987, True, 1.658, 0.137942
2023/06/29 10:01:40.483, True, 1.685, 0.139162
2023/06/29 10:01:40.987, True, 1.989, 0.138170
2023/06/29 10:01:41.491, True, 1.328, 0.139544
2023/06/29 10:01:41.987, True, 1.682, 0.139239
2023/06/29 10:01:42.491, True, 1.659, 0.139544
2023/06/29 10:01:42.995, True, 1.657, 0.139849
2023/06/29 10:01:43.491, True, 2.024, 0.137026
2023/06/29 10:01:43.995, True, 1.656, 0.138323
2023/06/29 10:01:44.499, True, 1.658, 0.137713
2023/06/29 10:01:44.995, True, 1.685, 0.139925
2023/06/29 10:01:45.499, True, 1.659, 0.138323
2023/06/29 10:01:46.003, True, 1.989, 0.141680
2023/06/29 10:01:46.499, True, 1.685, 0.138933
2023/06/29 10:01:47.003, True, 1.658, 0.137026
2023/06/29 10:01:47.507, True, 1.990, 0.138781
2023/06/29 10:01:48.011, True, 1.659, 0.137255
2023/06/29 10:01:48.506, True, 1.685, 0.140230
2023/06/29 10:01:49.010, True, 1.657, 0.137865
2023/06/29 10:01:49.515, True, 1.990, 0.138247
2023/06/29 10:01:50.011, True, 1.685, 0.139620
2023/06/29 10:01:50.515, True, 1.658, 0.140383
2023/06/29 10:01:51.019, True, 1.658, 0.139849
2023/06/29 10:01:51.515, True, 1.684, 0.137255
2023/06/29 10:01:52.019, True, 1.658, 0.139696
2023/06/29 10:01:52.522, True, 1.990, 0.138705
2023/06/29 10:01:53.018, True, 1.685, 0.140536
2023/06/29 10:01:53.523, True, 1.658, 0.136797
2023/06/29 10:01:54.019, True, 1.685, 0.139696
2023/06/29 10:01:54.523, True, 1.990, 0.140383
2023/06/29 10:01:55.027, True, 1.658, 0.141299
2023/06/29 10:01:55.523, True, 2.022, 0.137407
2023/06/29 10:01:56.027, True, 1.658, 0.140612
2023/06/29 10:01:56.531, True, 1.993, 0.142672
2023/06/29 10:01:57.027, True, 1.682, 0.137484
2023/06/29 10:01:57.531, True, 1.658, 0.136950
2023/06/29 10:01:58.035, True, 1.658, 0.139849
2023/06/29 10:01:58.531, True, 1.684, 0.138094
2023/06/29 10:01:59.035, True, 1.658, 0.140002
2023/06/29 10:01:59.539, True, 1.658, 0.137713
2023/06/29 10:02:00.043, True, 1.658, 0.140841
2023/06/29 10:02:00.539, True, 1.685, 0.138399
2023/06/29 10:02:01.043, True, 1.326, 0.137636
2023/06/29 10:02:01.546, True, 1.989, 0.137789
2023/06/29 10:02:02.043, True, 1.686, 0.139010
2023/06/29 10:02:02.546, True, 1.659, 0.139391
2023/06/29 10:02:03.051, True, 1.656, 0.139315
2023/06/29 10:02:03.547, True, 2.021, 0.140078
2023/06/29 10:02:04.051, True, 1.658, 0.139849
2023/06/29 10:02:04.554, True, 1.661, 0.141299
2023/06/29 10:02:05.051, True, 1.682, 0.139010
2023/06/29 10:02:05.555, True, 1.659, 0.139086
2023/06/29 10:02:06.058, True, 1.988, 0.138857
2023/06/29 10:02:06.555, True, 1.685, 0.140993
2023/06/29 10:02:07.059, True, 1.658, 0.138399
2023/06/29 10:02:07.563, True, 1.658, 0.139010
2023/06/29 10:02:08.059, True, 1.685, 0.139467
2023/06/29 10:02:08.563, True, 1.658, 0.139010
2023/06/29 10:02:09.067, True, 1.990, 0.140002
2023/06/29 10:02:09.563, True, 1.686, 0.137865
2023/06/29 10:02:10.067, True, 1.657, 0.135653
2023/06/29 10:02:10.563, True, 2.025, 0.137789
2023/06/29 10:02:11.067, True, 1.655, 0.139010
2023/06/29 10:02:11.570, True, 1.658, 0.138476
2023/06/29 10:02:12.074, True, 1.658, 0.141375
2023/06/29 10:02:12.571, True, 1.684, 0.136950
2023/06/29 10:02:13.075, True, 1.990, 0.137865
2023/06/29 10:02:13.579, True, 1.658, 0.136721
2023/06/29 10:02:14.082, True, 1.658, 0.137407
2023/06/29 10:02:14.578, True, 1.685, 0.135042
2023/06/29 10:02:15.082, True, 1.658, 0.136339
2023/06/29 10:02:15.586, True, 1.993, 0.137179
2023/06/29 10:02:16.083, True, 1.682, 0.137942
2023/06/29 10:02:16.587, True, 1.991, 0.139925
2023/06/29 10:02:17.091, True, 1.657, 0.136492
2023/06/29 10:02:17.587, True, 1.685, 0.139849
2023/06/29 10:02:18.091, True, 1.990, 0.137789
2023/06/29 10:02:18.595, True, 1.658, 0.136416
2023/06/29 10:02:19.091, True, 1.685, 0.136187
2023/06/29 10:02:19.594, True, 1.658, 0.138094
2023/06/29 10:02:20.099, True, 1.990, 0.139315
2023/06/29 10:02:20.595, True, 1.685, 0.135424
2023/06/29 10:02:21.099, True, 1.659, 0.137331
2023/06/29 10:02:21.603, True, 1.658, 0.136416
2023/06/29 10:02:22.099, True, 1.684, 0.135729
2023/06/29 10:02:22.602, True, 1.990, 0.137255
2023/06/29 10:02:23.107, True, 1.658, 0.137560
2023/06/29 10:02:23.610, True, 1.991, 0.137484
2023/06/29 10:02:24.107, True, 1.683, 0.137255
2023/06/29 10:02:24.611, True, 1.991, 0.136950
2023/06/29 10:02:25.114, True, 1.657, 0.137331
2023/06/29 10:02:25.610, True, 1.688, 0.137636
2023/06/29 10:02:26.114, True, 1.655, 0.135195
2023/06/29 10:02:26.618, True, 1.658, 0.138705
2023/06/29 10:02:27.114, True, 1.684, 0.136721
2023/06/29 10:02:27.618, True, 1.990, 0.136721
2023/06/29 10:02:28.122, True, 1.658, 0.138781
2023/06/29 10:02:28.618, True, 1.684, 0.138018
2023/06/29 10:02:29.123, True, 1.658, 0.137713
2023/06/29 10:02:29.626, True, 1.989, 0.136492
2023/06/29 10:02:30.123, True, 1.687, 0.137713
2023/06/29 10:02:30.626, True, 1.987, 0.134737
2023/06/29 10:02:31.130, True, 1.658, 0.136797
2023/06/29 10:02:31.627, True, 1.685, 0.138476
2023/06/29 10:02:32.131, True, 1.990, 0.137179
2023/06/29 10:02:32.635, True, 1.658, 0.137026
2023/06/29 10:02:33.130, True, 1.684, 0.137789
2023/06/29 10:02:33.635, True, 1.991, 0.138170
2023/06/29 10:02:34.139, True, 1.658, 0.136339
2023/06/29 10:02:34.635, True, 1.348, 0.137942
2023/06/29 10:02:35.139, True, 1.658, 0.137026
2023/06/29 10:02:35.643, True, 1.658, 0.137789
2023/06/29 10:02:36.139, True, 1.684, 0.138552
2023/06/29 10:02:36.643, True, 1.659, 0.135729
2023/06/29 10:02:37.147, True, 1.658, 0.137026
2023/06/29 10:02:37.643, True, 1.684, 0.138170
2023/06/29 10:02:38.147, True, 1.660, 0.137865
2023/06/29 10:02:38.651, True, 1.986, 0.137636
2023/06/29 10:02:39.147, True, 1.686, 0.137407
2023/06/29 10:02:39.651, True, 1.990, 0.138094
2023/06/29 10:02:40.154, True, 1.657, 0.136873
2023/06/29 10:02:40.659, True, 1.989, 0.136797
2023/06/29 10:02:41.155, True, 1.685, 0.137560
2023/06/29 10:02:41.659, True, 1.658, 0.138323
2023/06/29 10:02:42.163, True, 1.658, 0.137331
2023/06/29 10:02:42.659, True, 1.685, 0.136721
2023/06/29 10:02:43.163, True, 1.990, 0.137407
2023/06/29 10:02:43.667, True, 1.659, 0.137789
2023/06/29 10:02:44.163, True, 1.684, 0.133822
2023/06/29 10:02:44.667, True, 1.657, 0.138552
2023/06/29 10:02:45.171, True, 1.658, 0.136873
2023/06/29 10:02:45.667, True, 1.686, 0.138170
2023/06/29 10:02:46.171, True, 1.657, 0.137255
2023/06/29 10:02:46.675, True, 1.989, 0.137789
2023/06/29 10:02:47.179, True, 1.658, 0.140154
2023/06/29 10:02:47.675, True, 1.685, 0.137713
2023/06/29 10:02:48.179, True, 1.989, 0.137865
2023/06/29 10:02:48.683, True, 1.658, 0.138705
2023/06/29 10:02:49.178, True, 1.687, 0.137713
2023/06/29 10:02:49.683, True, 1.325, 0.136568
2023/06/29 10:02:50.187, True, 1.658, 0.137026
2023/06/29 10:02:50.683, True, 1.685, 0.137179
2023/06/29 10:02:51.187, True, 1.326, 0.137789
2023/06/29 10:02:51.691, True, 1.658, 0.137331
2023/06/29 10:02:52.187, True, 1.685, 0.139391
2023/06/29 10:02:52.691, True, 1.990, 0.135958
2023/06/29 10:02:53.195, True, 1.658, 0.137331
2023/06/29 10:02:53.690, True, 2.022, 0.136187
2023/06/29 10:02:54.195, True, 1.658, 0.137865
2023/06/29 10:02:54.699, True, 1.658, 0.135958
2023/06/29 10:02:55.195, True, 2.022, 0.135729
2023/06/29 10:02:55.699, True, 1.658, 0.135576
2023/06/29 10:02:56.203, True, 1.658, 0.136797
2023/06/29 10:02:56.699, True, 1.685, 0.136492
2023/06/29 10:02:57.203, True, 1.658, 0.134966
2023/06/29 10:02:57.707, True, 1.990, 0.136797
2023/06/29 10:02:58.203, True, 1.685, 0.135119
2023/06/29 10:02:58.707, True, 1.658, 0.136873
2023/06/29 10:02:59.211, True, 1.658, 0.136492
2023/06/29 10:02:59.707, True, 1.685, 0.138247
2023/06/29 10:03:00.211, True, 1.658, 0.136721
2023/06/29 10:03:00.715, True, 1.658, 0.137331
2023/06/29 10:03:01.211, True, 1.686, 0.135500
2023/06/29 10:03:01.715, True, 1.657, 0.137713
2023/06/29 10:03:02.219, True, 1.989, 0.135042
2023/06/29 10:03:02.715, True, 1.685, 0.137026
2023/06/29 10:03:03.218, True, 1.658, 0.136873
2023/06/29 10:03:03.723, True, 1.658, 0.138628
2023/06/29 10:03:04.219, True, 2.021, 0.136187
2023/06/29 10:03:04.723, True, 1.658, 0.136568
2023/06/29 10:03:05.227, True, 1.658, 0.135119
2023/06/29 10:03:05.723, True, 1.685, 0.137255
2023/06/29 10:03:06.227, True, 1.989, 0.137865
2023/06/29 10:03:06.723, True, 1.685, 0.137102
2023/06/29 10:03:07.227, True, 1.658, 0.137102
2023/06/29 10:03:07.731, True, 1.658, 0.138018
2023/06/29 10:03:08.227, True, 1.685, 0.137102
2023/06/29 10:03:08.731, True, 1.658, 0.135348
2023/06/29 10:03:09.235, True, 1.657, 0.138323
2023/06/29 10:03:09.731, True, 1.685, 0.137713
2023/06/29 10:03:10.235, True, 1.991, 0.135882
2023/06/29 10:03:10.731, True, 1.684, 0.137713
2023/06/29 10:03:11.235, True, 1.658, 0.135882
2023/06/29 10:03:11.739, True, 1.658, 0.136950
2023/06/29 10:03:12.235, True, 1.348, 0.135805
2023/06/29 10:03:12.739, True, 1.989, 0.138018
2023/06/29 10:03:13.243, True, 1.658, 0.137102
2023/06/29 10:03:13.739, True, 1.685, 0.136645
2023/06/29 10:03:14.243, True, 1.660, 0.135424
2023/06/29 10:03:14.747, True, 1.657, 0.135500
2023/06/29 10:03:15.243, True, 2.021, 0.137102
2023/06/29 10:03:15.747, True, 1.658, 0.136339
2023/06/29 10:03:16.243, True, 2.022, 0.135500
2023/06/29 10:03:16.747, True, 1.660, 0.138018
2023/06/29 10:03:17.251, True, 1.656, 0.135729
2023/06/29 10:03:17.755, True, 1.658, 0.137636
2023/06/29 10:03:18.251, True, 1.685, 0.135882
2023/06/29 10:03:18.755, True, 1.661, 0.136339
2023/06/29 10:03:19.259, True, 1.656, 0.133898
2023/06/29 10:03:19.755, True, 2.021, 0.133898
2023/06/29 10:03:20.259, True, 1.658, 0.135805
2023/06/29 10:03:20.755, True, 1.685, 0.137560
2023/06/29 10:03:21.259, True, 1.658, 0.137255
2023/06/29 10:03:21.763, True, 1.989, 0.137713
2023/06/29 10:03:22.267, True, 1.658, 0.137865
2023/06/29 10:03:22.763, True, 1.685, 0.136339
2023/06/29 10:03:23.267, True, 1.658, 0.136034
2023/06/29 10:03:23.763, True, 2.023, 0.136187
2023/06/29 10:03:24.266, True, 1.657, 0.134661
2023/06/29 10:03:24.771, True, 1.658, 0.136263
2023/06/29 10:03:25.266, True, 2.024, 0.135119
2023/06/29 10:03:25.771, True, 1.656, 0.135424
2023/06/29 10:03:26.275, True, 1.658, 0.133440
2023/06/29 10:03:26.770, True, 1.685, 0.138170
2023/06/29 10:03:27.275, True, 1.989, 0.135119
2023/06/29 10:03:27.779, True, 1.658, 0.133745
2023/06/29 10:03:28.275, True, 1.685, 0.136873
2023/06/29 10:03:28.779, True, 1.658, 0.137484
2023/06/29 10:03:29.283, True, 1.658, 0.136034
2023/06/29 10:03:29.779, True, 2.022, 0.133593
2023/06/29 10:03:30.283, True, 1.659, 0.135042
2023/06/29 10:03:30.787, True, 1.657, 0.135195
2023/06/29 10:03:31.291, True, 1.990, 0.133974
2023/06/29 10:03:31.787, True, 1.685, 0.138094
2023/06/29 10:03:32.291, True, 1.659, 0.135882
2023/06/29 10:03:32.795, True, 1.657, 0.135882
2023/06/29 10:03:33.291, True, 2.022, 0.134890
2023/06/29 10:03:33.795, True, 1.659, 0.137942
2023/06/29 10:03:34.299, True, 1.657, 0.137255
2023/06/29 10:03:34.795, True, 1.685, 0.137560
2023/06/29 10:03:35.299, True, 1.658, 0.134508
2023/06/29 10:03:35.803, True, 1.990, 0.136263
2023/06/29 10:03:36.299, True, 1.685, 0.137407
2023/06/29 10:03:36.803, True, 1.658, 0.135576
2023/06/29 10:03:37.299, True, 2.022, 0.136568
2023/06/29 10:03:37.803, True, 1.658, 0.135042
2023/06/29 10:03:38.307, True, 1.658, 0.137484
2023/06/29 10:03:38.803, True, 2.022, 0.138094
2023/06/29 10:03:39.307, True, 1.659, 0.136187
2023/06/29 10:03:39.811, True, 1.658, 0.136187
2023/06/29 10:03:40.307, True, 2.022, 0.136950
2023/06/29 10:03:40.811, True, 1.659, 0.136263
2023/06/29 10:03:41.315, True, 1.657, 0.136416
2023/06/29 10:03:41.811, True, 1.685, 0.133364
2023/06/29 10:03:42.315, True, 1.659, 0.134661
2023/06/29 10:03:42.811, True, 2.021, 0.135653
2023/06/29 10:03:43.314, True, 1.657, 0.136187
2023/06/29 10:03:43.819, True, 1.661, 0.134661
2023/06/29 10:03:44.315, True, 1.682, 0.135424
2023/06/29 10:03:44.818, True, 1.658, 0.135348
2023/06/29 10:03:45.322, True, 1.659, 0.136416
2023/06/29 10:03:45.819, True, 1.685, 0.135576
2023/06/29 10:03:46.322, True, 1.656, 0.133974
2023/06/29 10:03:46.827, True, 1.660, 0.136187
2023/06/29 10:03:47.323, True, 1.685, 0.136873
2023/06/29 10:03:47.826, True, 1.986, 0.135119
2023/06/29 10:03:48.331, True, 1.658, 0.136034
2023/06/29 10:03:48.827, True, 1.686, 0.135805
2023/06/29 10:03:49.330, True, 1.658, 0.135576
2023/06/29 10:03:49.835, True, 1.658, 0.136950
2023/06/29 10:03:50.338, True, 1.656, 0.135729
2023/06/29 10:03:50.835, True, 1.685, 0.132982
2023/06/29 10:03:51.339, True, 1.990, 0.136187
2023/06/29 10:03:51.843, True, 1.658, 0.135805
2023/06/29 10:03:52.339, True, 1.685, 0.134127
2023/06/29 10:03:52.843, True, 1.658, 0.134813
2023/06/29 10:03:53.346, True, 1.658, 0.136187
2023/06/29 10:03:53.843, True, 1.685, 0.133669
2023/06/29 10:03:54.347, True, 1.990, 0.135576
2023/06/29 10:03:54.850, True, 1.658, 0.135348
2023/06/29 10:03:55.347, True, 1.685, 0.137484
2023/06/29 10:03:55.851, True, 1.658, 0.136492
2023/06/29 10:03:56.347, True, 2.022, 0.136187
2023/06/29 10:03:56.850, True, 1.660, 0.135576
2023/06/29 10:03:57.354, True, 1.656, 0.136797
2023/06/29 10:03:57.851, True, 2.022, 0.136797
2023/06/29 10:03:58.355, True, 1.658, 0.134356
2023/06/29 10:03:58.858, True, 1.658, 0.133440
2023/06/29 10:03:59.355, True, 1.684, 0.134661
2023/06/29 10:03:59.859, True, 1.658, 0.136873
2023/06/29 10:04:00.362, True, 1.658, 0.134737
2023/06/29 10:04:00.858, True, 1.348, 0.134279
2023/06/29 10:04:01.363, True, 1.658, 0.133211
2023/06/29 10:04:01.858, True, 2.022, 0.135576
2023/06/29 10:04:02.362, True, 1.658, 0.135958
2023/06/29 10:04:02.866, True, 1.658, 0.135805
2023/06/29 10:04:03.371, True, 1.992, 0.135653
2023/06/29 10:04:03.866, True, 1.683, 0.134737
2023/06/29 10:04:04.371, True, 1.658, 0.133669
2023/06/29 10:04:04.875, True, 1.660, 0.133364
2023/06/29 10:04:05.371, True, 1.685, 0.135119
2023/06/29 10:04:05.875, True, 1.656, 0.134890
2023/06/29 10:04:06.370, True, 1.685, 0.138933
2023/06/29 10:04:06.875, True, 1.661, 0.134890
2023/06/29 10:04:07.378, True, 1.986, 0.134966
2023/06/29 10:04:07.874, True, 1.685, 0.134279
2023/06/29 10:04:08.379, True, 1.658, 0.134508
2023/06/29 10:04:08.883, True, 1.658, 0.135882
2023/06/29 10:04:09.387, True, 1.658, 0.134813
2023/06/29 10:04:09.883, True, 2.025, 0.134661
2023/06/29 10:04:10.387, True, 1.656, 0.133974
2023/06/29 10:04:10.891, True, 1.658, 0.134203
2023/06/29 10:04:11.395, True, 1.992, 0.133593
2023/06/29 10:04:11.891, True, 1.685, 0.135195
2023/06/29 10:04:12.395, True, 1.657, 0.133974